Total_Precipitation_Accumulation
0.00 0.00 0.01 0.01 0.01 0.01 0.01 0.03 0.07 0.13 0.14 0.21 0.33 0.44 0.60 0.72 0.89 1.02 0.97 0.81 0.71 0.70 0.70 0.66 0.62 0.54 0.74 0.88 0.88 0.99 0.94 0.83 0.52 0.36 0.23 0.16 0.14 0.13 0.13 0.16 0.16 0.19 0.23 0.28
0.01 0.02 0.02 0.01 0.01 0.01 0.03 0.05 0.10 0.13 0.13 0.18 0.32 0.55 0.68 0.73 0.72 0.78 0.83 0.72 0.60 0.59 0.55 0.40 0.29 0.33 0.34 0.40 0.46 0.48 0.49 0.41 0.25 0.17 0.15 0.13 0.11 0.08 0.07 0.07 0.09 0.09 0.12 0.17
0.00 0.01 0.01 0.01 0.01 0.02 0.04 0.05 0.06 0.10 0.10 0.17 0.31 0.75 0.81 0.68 0.59 0.53 0.62 0.63 0.51 0.42 0.32 0.18 0.11 0.12 0.27 0.46 0.40 0.25 0.25 0.20 0.13 0.11 0.10 0.10 0.10 0.10 0.09 0.08 0.07 0.08 0.07 0.09
0.01 0.01 0.01 0.01 0.02 0.01 0.03 0.03 0.01 0.02 0.06 0.28 0.38 0.77 0.83 0.67 0.65 0.50 0.45 0.45 0.28 0.17 0.12 0.08 0.06 0.07 0.15 0.26 0.26 0.21 0.20 0.20 0.12 0.09 0.08 0.08 0.07 0.08 0.08 0.07 0.06 0.07 0.06 0.07
0.01 0.01 0.01 0.01 0.01 0.01 0.01 0.01 0.01 0.03 0.07 0.18 0.30 0.63 0.80 0.59 0.67 0.46 0.29 0.18 0.09 0.05 0.03 0.02 0.02 0.02 0.02 0.05 0.11 0.16 0.25 0.29 0.20 0.14 0.10 0.09 0.07 0.06 0.07 0.07 0.07 0.08 0.10 0.11
0.01 0.01 0.01 0.01 0.01 0.01 0.00 0.01 0.07 0.14 0.18 0.37 0.40 0.42 0.67 0.47 0.35 0.20 0.12 0.06 0.04 0.02 0.01 0.01 0.01 0.01 0.01 0.04 0.06 0.09 0.19 0.26 0.21 0.16 0.14 0.15 0.15 0.13 0.12 0.11 0.11 0.14 0.17 0.19
0.06 0.05 0.03 0.01 0.01 0.02 0.01 0.02 0.14 0.31 0.44 0.54 0.27 0.43 0.73 0.35 0.19 0.09 0.06 0.03 0.02 0.01 0.01 0.01 0.01 0.01 0.01 0.03 0.04 0.04 0.08 0.13 0.12 0.10 0.11 0.16 0.23 0.29 0.30 0.25 0.22 0.20 0.21 0.23
0.08 0.14 0.06 0.02 0.01 0.01 0.01 0.01 0.03 0.06 0.13 0.22 0.26 0.82 0.65 0.18 0.09 0.05 0.02 0.02 0.02 0.01 0.01 0.01 0.01 0.01 0.01 0.01 0.01 0.02 0.03 0.03 0.03 0.04 0.05 0.07 0.11 0.18 0.26 0.31 0.30 0.30 0.32 0.27
0.02 0.03 0.02 0.02 0.01 0.01 0.01 0.00 0.00 0.01 0.03 0.13 0.35 0.51 0.25 0.06 0.03 0.02 0.01 0.01 0.01 0.00 0.00 0.00 0.00 0.00 0.00 0.00 0.00 0.00 0.01 0.01 0.01 0.01 0.01 0.01 0.02 0.04 0.06 0.10 0.14 0.21 0.31 0.30
0.01 0.01 0.01 0.01 0.01 0.02 0.02 0.01 0.01 0.01 0.03 0.09 0.24 0.40 0.35 0.10 0.04 0.02 0.01 0.01 0.00 0.00 0.00 0.00 0.00 0.00 0.00 0.00 0.00 0.00 0.00 0.00 0.00 0.00 0.00 0.00 0.01 0.01 0.02 0.03 0.04 0.06 0.11 0.15
0.01 0.00 0.01 0.01 0.02 0.02 0.02 0.01 0.01 0.01 0.01 0.03 0.10 0.18 0.15 0.08 0.05 0.02 0.01 0.00 0.00 0.00 0.00 0.00 0.00 0.00 0.00 0.00 0.00 0.00 0.00 0.00 0.00 0.00 0.00 0.00 0.00 0.00 0.00 0.01 0.01 0.02 0.02 0.03
0.01 0.01 0.01 0.02 0.02 0.02 0.02 0.01 0.01 0.01 0.02 0.02 0.03 0.04 0.03 0.03 0.04 0.02 0.00 0.00 0.00 0.00 0.00 0.00 0.00 0.00 0.00 0.00 0.00 0.00 0.00 0.00 0.00 0.00 0.00 0.00 0.00 0.00 0.00 0.00 0.00 0.00 0.01 0.01
0.01 0.01 0.01 0.05 0.08 0.04 0.01 0.01 0.02 0.02 0.03 0.02 0.03 0.05 0.04 0.02 0.02 0.01 0.01 0.00 0.00 0.00 0.00 0.00 0.00 0.00 0.00 0.00 0.00 0.00 0.00 0.00 0.00 0.00 0.00 0.00 0.00 0.00 0.00 0.00 0.00 0.01 0.01 0.01
0.01 0.00 0.00 0.03 0.05 0.03 0.02 0.02 0.02 0.02 0.01 0.01 0.01 0.03 0.03 0.02 0.02 0.01 0.00 0.00 0.00 0.00 0.00 0.00 0.00 0.00 0.00 0.00 0.00 0.00 0.00 0.00 0.00 0.00 0.00 0.01 0.01 0.01 0.01 0.01 0.01 0.01 0.02 0.02
0.00 0.00 0.00 0.00 0.01 0.01 0.02 0.02 0.02 0.02 0.01 0.01 0.01 0.01 0.02 0.01 0.02 0.01 0.00 0.00 0.00 0.00 0.00 0.00 0.00 0.00 0.00 0.00 0.00 0.00 0.00 0.00 0.00 0.02 0.01 0.01 0.01 0.01 0.01 0.01 0.02 0.03 0.03 0.03
0.00 0.00 0.00 0.00 0.00 0.01 0.01 0.02 0.03 0.03 0.02 0.02 0.02 0.02 0.03 0.02 0.01 0.01 0.01 0.00 0.00 0.00 0.00 0.00 0.00 0.00 0.00 0.00 0.00 0.00 0.00 0.00 0.01 0.01 0.01 0.01 0.02 0.03 0.04 0.04 0.05 0.06 0.07 0.09
0.01 0.01 0.00 0.00 0.01 0.01 0.01 0.02 0.03 0.03 0.03 0.03 0.03 0.04 0.04 0.03 0.02 0.01 0.01 0.00 0.00 0.00 0.00 0.00 0.00 0.00 0.00 0.00 0.00 0.00 0.00 0.01 0.01 0.01 0.01 0.02 0.03 0.04 0.06 0.08 0.11 0.12 0.12 0.14
0.01 0.01 0.01 0.00 0.00 0.01 0.02 0.05 0.04 0.05 0.06 0.07 0.05 0.05 0.05 0.03 0.02 0.02 0.01 0.01 0.00 0.00 0.00 0.00 0.00 0.00 0.00 0.00 0.00 0.01 0.01 0.01 0.01 0.01 0.02 0.03 0.05 0.07 0.10 0.12 0.14 0.17 0.20 0.20
0.03 0.02 0.01 0.01 0.01 0.03 0.05 0.06 0.05 0.06 0.09 0.10 0.11 0.09 0.07 0.05 0.05 0.05 0.03 0.02 0.01 0.01 0.00 0.00 0.00 0.00 0.00 0.01 0.01 0.01 0.01 0.02 0.02 0.03 0.05 0.06 0.09 0.11 0.13 0.15 0.17 0.22 0.25 0.23
0.04 0.04 0.03 0.02 0.02 0.04 0.05 0.09 0.06 0.05 0.10 0.16 0.19 0.16 0.11 0.07 0.08 0.06 0.03 0.01 0.01 0.01 0.01 0.00 0.00 0.00 0.01 0.02 0.02 0.02 0.04 0.05 0.07 0.08 0.09 0.11 0.13 0.15 0.16 0.17 0.20 0.23 0.26 0.26
0.09 0.10 0.09 0.07 0.06 0.08 0.08 0.10 0.09 0.15 0.19 0.21 0.21 0.13 0.06 0.04 0.03 0.02 0.02 0.01 0.01 0.01 0.01 0.01 0.01 0.01 0.02 0.03 0.05 0.07 0.08 0.09 0.09 0.09 0.11 0.12 0.13 0.16 0.17 0.20 0.21 0.23 0.25 0.24
0.09 0.10 0.13 0.15 0.20 0.22 0.17 0.16 0.20 0.21 0.12 0.07 0.05 0.04 0.03 0.02 0.02 0.02 0.01 0.01 0.01 0.01 0.01 0.01 0.02 0.03 0.04 0.06 0.08 0.09 0.09 0.08 0.08 0.10 0.13 0.14 0.16 0.18 0.19 0.24 0.25 0.25 0.26 0.25
0.09 0.12 0.16 0.22 0.29 0.24 0.21 0.17 0.12 0.07 0.04 0.03 0.03 0.02 0.01 0.01 0.01 0.01 0.01 0.01 0.01 0.01 0.01 0.02 0.03 0.04 0.05 0.08 0.10 0.13 0.13 0.12 0.13 0.16 0.17 0.18 0.18 0.21 0.25 0.30 0.31 0.32 0.32 0.32
0.09 0.08 0.08 0.14 0.19 0.17 0.14 0.11 0.07 0.05 0.04 0.03 0.02 0.01 0.01 0.00 0.00 0.00 0.00 0.00 0.00 0.00 0.01 0.02 0.03 0.05 0.06 0.07 0.10 0.14 0.16 0.18 0.20 0.20 0.19 0.19 0.19 0.19 0.23 0.30 0.32 0.33 0.34 0.34
0.06 0.09 0.12 0.17 0.18 0.18 0.17 0.13 0.07 0.04 0.03 0.02 0.01 0.01 0.00 0.00 0.00 0.00 0.00 0.00 0.00 0.00 0.01 0.02 0.04 0.05 0.06 0.07 0.09 0.11 0.14 0.19 0.22 0.22 0.20 0.20 0.17 0.18 0.20 0.24 0.27 0.24 0.26 0.23
0.05 0.08 0.16 0.23 0.26 0.26 0.21 0.12 0.06 0.05 0.03 0.02 0.01 0.01 0.00 0.00 0.00 0.00 0.00 0.00 0.00 0.01 0.02 0.03 0.04 0.04 0.05 0.05 0.06 0.07 0.10 0.16 0.24 0.26 0.24 0.21 0.19 0.19 0.21 0.23 0.24 0.23 0.19 0.17